DW0499 Weather Reports


time (UTC)temp
C
wind
direction
speed
KPH
gust
KPH
rain 1hr
cm
rain 24hr
cm
rain mn
cm
humidity
%
barometer
mb
20260507023105 7 360 4.8 9.7 0.03 0.66 0.05 23 1013.3
20260507021555 7 360 3.2 6.4 0.00 0.64 0.03 22 1013.3
20260507020057 7 0 0.0 8.0 0.00 0.64 0.03 23 1013.3
20260507014604 7 360 4.8 12.9 0.00 0.64 0.03 22 1013.2
20260507013056 7 360 4.8 9.7 0.00 0.64 0.00 22 1013.2
20260507011555 7 360 4.8 9.7 0.00 0.64 0.00 22 1013.2
20260507010107 7 360 3.2 6.4 0.00 0.64 0.00 22 1013.3
20260507004557 7 360 3.2 8.0 0.00 0.64 0.00 22 1013.3
20260507003058 7 360 0.0 4.8 0.00 0.64 0.00 22 1013.2
20260507001605 7 360 6.4 9.7 0.00 0.64 0.00 22 1013.1
20260507000105 7 360 8.0 17.7 0.00 0.64 0.00 22 1013.1
20260506234603 7 360 9.7 16.1 0.00 0.64 0.00 22 1013.1
20260506233129 7 360 0.0 0.0 0.00 0.64 0.00 22 1013.2
20260506231605 7 0 0.0 0.0 0.00 0.64 0.00 22 1012.9
20260506230057 7 0 0.0 1.6 0.00 0.64 0.00 22 1013.2
20260506224556 7 0 0.0 8.0 0.00 0.64 0.00 22 1013.1
20260506223103 7 360 4.8 8.0 0.00 0.64 0.00 22 1013.2
20260506221559 7 360 4.8 9.7 0.00 0.64 0.00 22 1013.1
20260506220059 7 0 0.0 0.0 0.00 0.64 0.00 23 1013.0
20260506214557 7 0 0.0 6.4 0.00 0.64 0.64 24 1012.7
20260506213113 7 0 1.6 4.8 0.00 0.64 0.64 25 1012.8
20260506211558 7 360 1.6 6.4 0.00 0.64 0.64 25 1012.7
20260506210059 7 360 1.6 4.8 0.00 0.64 0.64 27 1012.5
20260506204558 7 360 3.2 6.4 0.00 0.64 0.64 28 1012.6
20260506203058 6 360 1.6 6.4 0.00 0.64 0.64 29 1012.3
20260506201557 7 360 4.8 9.7 0.00 0.64 0.64 34 1012.2
20260506200057 8 360 4.8 9.7 0.00 0.64 0.64 39 1012.2
20260506194634 8 360 6.4 9.7 0.00 0.64 0.61 38 1011.9
20260506193105 8 360 6.4 12.9 0.00 0.64 0.61 37 1011.7
20260506191558 8 360 6.4 12.9 0.00 0.64 0.61 36 1011.4
20260506184555 8 360 6.4 9.7 0.00 0.64 0.61 36 1011.4
20260506183057 9 360 3.2 9.7 0.00 0.64 0.61 35 1011.3
20260506181558 9 360 3.2 8.0 0.00 0.64 0.61 35 1011.3
20260506180106 9 360 4.8 8.0 0.00 0.64 0.61 36 1011.2
20260506174557 9 360 3.2 17.7 0.00 0.66 0.61 38 1011.1
20260506173059 9 360 6.4 14.5 0.00 0.66 0.61 38 1011.0
20260506171602 9 360 4.8 14.5 0.00 0.66 0.61 38 1010.8
20260506170106 9 360 9.7 16.1 0.03 0.66 0.61 39 1010.6
20260506164602 9 360 11.3 19.3 0.00 0.64 0.58 40 1010.9
20260506163114 9 360 11.3 22.5 0.00 0.64 0.58 37 1010.8
20260506161602 10 360 9.7 22.5 0.00 0.64 0.58 35 1010.7
20260506160105 10 360 11.3 17.7 0.00 0.64 0.56 34 1010.8
20260506154629 9 360 12.9 20.9 0.00 0.64 0.56 38 1010.9
20260506153117 10 360 9.7 24.1 0.03 0.64 0.56 40 1010.9
20260506151611 10 360 12.9 32.2 0.03 0.64 0.56 41 1010.7
20260506150110 10 360 16.1 22.5 0.03 0.61 0.56 37 1010.8
20260506144611 9 360 17.7 29.0 0.03 0.61 0.56 31 1010.7
20260506143115 9 360 16.1 29.0 0.03 0.58 0.53 28 1010.8
20260506141606 9 360 17.7 24.1 0.03 0.58 0.53 28 1010.8
20260506140106 8 360 16.1 25.7 0.00 0.56 0.51 25 1010.9
20260506134603 8 360 12.9 25.7 0.00 0.56 0.51 23 1010.9
20260506133055 8 360 14.5 29.0 0.00 0.56 0.48 22 1010.9
20260506131601 8 360 11.3 25.7 0.03 0.56 0.48 22 1010.8
20260506124559 7 360 9.7 20.9 0.03 0.58 0.48 22 1010.8
20260506123058 7 360 11.3 20.9 0.03 0.56 0.46 22 1010.7
20260506121559 8 360 6.4 19.3 0.03 0.56 0.46 24 1010.4
20260506114606 8 360 12.9 20.9 0.05 0.56 0.46 24 1010.2
20260506113057 8 360 11.3 19.3 0.05 0.53 0.43 23 1009.9
20260506111557 8 360 16.1 27.4 0.05 0.51 0.41 23 1010.2
20260506110103 8 360 17.7 32.2 0.08 0.51 0.41 22 1009.9
20260506104603 7 360 9.7 29.0 0.08 0.48 0.38 21 1010.0
20260506103059 7 360 19.3 29.0 0.08 0.46 0.36 21 1010.0
20260506101606 7 360 12.9 25.7 0.13 0.46 0.36 22 1009.8
20260506094627 7 360 3.2 8.0 0.18 0.43 0.28 22 1009.5
20260506093057 7 0 1.6 6.4 0.18 0.41 0.28 22 1009.4
20260506091559 7 360 4.8 12.9 0.18 0.36 0.20 21 1009.5
20260506090054 8 360 9.7 17.7 0.15 0.30 0.18 21 1009.2
20260506084602 8 0 0.0 8.0 0.08 0.25 0.10 21 1008.6
20260506083103 8 0 1.6 8.0 0.05 0.20 0.08 21 1008.2
20260506081559 8 0 0.0 6.4 0.00 0.15 0.00 22 1008.0
20260506073103 7 360 1.6 4.8 0.00 0.15 0.00 22 1007.6
20260506071601 7 360 3.2 6.4 0.00 0.15 0.00 22 1007.6
20260506070110 7 360 0.0 3.2 0.00 0.15 0.00 22 1007.7
20260506061558 7 360 1.6 4.8 0.00 0.23 0.00 22 1007.9
20260506044602 6 360 6.4 9.7 0.00 0.56 0.00 23 1007.8
20260506043055 6 0 3.2 6.4 0.00 0.56 0.00 23 1007.8
20260506041559 6 360 3.2 8.0 0.00 0.56 0.00 23 1007.9
20260506040104 6 360 3.2 9.7 0.00 0.56 0.00 23 1007.8
20260506034611 6 360 3.2 8.0 0.00 0.56 0.00 24 1007.8
20260506033055 6 360 4.8 8.0 0.00 0.56 0.00 24 1007.9
20260506031603 6 360 0.0 3.2 0.00 0.56 0.00 24 1008.1
20260506030056 -17 0.0 0.0 0.00 0.56 0.00 1008.3
20260506024557 -17 0.0 0.0 0.00 0.56 0.00 1008.5